[[{"header":{"parameterUnit":"m.s-1","parameterCategory":2,"la1":30.2991,"la2":30.254,"lo1":-89.0895,"lo2":-89.0444,"dy":0.0017,"dx":0.0017,"nx":28,"ny":28,"refTime":"2025-12-22T09:00:00:Z","depth":"0","parameterNumber":2,"parameterNumberName":"U-component_of_CURRENTS"},"data":[0,0,0,0,0,0,0,0,0,0,0,0,0,0,0,0,0,0,0,0,0,0,0,0,0,0,0,0,0,0,0,0,0,0,0,0,0,0,0,0,0,0,0,0,0,0,0,0,0,0,0,0,0,0,0,0,0,0,-0.3769,-0.3769,0,-0.3689,-0.3688,-0.3686,-0.364,-0.3641,-0.3641,-0.3642,-0.3531,-0.3528,-0.3524,0,0,0,0,0,0,0,0,0,0,0,0,0,-0.3738,-0.3739,-0.3769,-0.3769,-0.3769,-0.3689,-0.3687,-0.3685,-0.364,-0.3641,-0.3641,-0.3642,-0.3532,-0.3528,-0.3524,0,0,0,0,0,0,0,0,0,0,0,0,0,-0.3706,-0.374,-0.3769,-0.3743,-0.374,-0.369,-0.3687,-0.3685,-0.364,-0.3641,-0.3642,-0.3643,-0.3534,-0.3529,-0.3523,-0.3471,0,0,-0.3507,-0.3505,0,0,0,0,0,0,0,0,-0.3708,-0.3706,-0.3747,-0.3745,-0.3742,-0.3683,-0.3637,-0.3615,-0.3639,-0.3668,-0.3642,-0.3643,-0.3584,-0.3575,-0.3545,-0.3466,-0.3461,-0.3507,-0.3503,-0.3501,-0.35,0,0,0,0,0,0,0,-0.3711,-0.3709,-0.3728,-0.3747,-0.3744,-0.3687,-0.3684,-0.3631,-0.3614,-0.3666,-0.3665,-0.367,-0.3582,-0.3551,-0.3543,-0.3459,-0.3507,-0.3502,-0.3499,-0.3497,-0.3386,-0.3386,0,0,0,0,0,0,-0.3745,-0.3712,-0.3731,-0.3727,-0.3737,-0.3688,-0.3684,-0.3694,-0.3615,-0.3607,-0.3669,-0.3668,-0.3559,-0.3549,-0.3539,-0.3506,-0.3501,-0.3496,-0.3493,-0.3386,-0.3386,-0.3387,0,0,0,0,0,0,-0.3745,-0.3748,-0.3734,-0.3724,-0.3719,-0.3689,-0.37,-0.3692,-0.3663,-0.362,-0.361,-0.365,-0.356,-0.3546,-0.3498,-0.35,-0.3494,-0.3489,-0.3386,-0.3386,-0.3386,-0.3418,0,0,0,0,0,0,-0.3744,-0.3748,-0.3752,-0.3727,-0.3722,-0.3689,-0.3699,-0.369,-0.3669,-0.3667,-0.36,-0.359,-0.3559,-0.3506,-0.3493,-0.3493,-0.3485,-0.3385,-0.3386,-0.3386,-0.3417,-0.342,-0.3422,0,0,0,0,0,-0.3744,-0.3721,-0.3753,-0.3755,-0.3734,-0.3688,-0.3677,-0.3653,-0.3668,-0.3634,-0.3612,-0.3593,-0.3501,-0.3501,-0.3485,-0.3484,-0.3385,-0.3386,-0.3386,-0.3416,-0.3419,-0.3422,0,0,0,0,0,0,-0.3707,-0.3715,-0.3748,-0.3734,-0.3721,-0.3684,-0.364,-0.3653,-0.3606,-0.3604,-0.3578,-0.3565,-0.3531,-0.35,-0.3502,-0.3457,-0.3446,-0.3444,-0.3474,-0.3477,-0.3479,-0.3492,-0.348,0,0,0,0,0,-0.3711,-0.3685,-0.3708,-0.3687,-0.3683,-0.3672,-0.365,-0.3647,-0.3616,-0.3596,-0.3567,-0.3539,-0.3518,-0.3493,-0.3457,-0.3415,-0.34,-0.3411,-0.3413,-0.3416,-0.3417,-0.3426,-0.3429,-0.3388,-0.3388,-0.3388,0,0,-0.3689,-0.3689,-0.3677,-0.3676,-0.3655,-0.3646,-0.3655,-0.3614,-0.3618,-0.359,-0.3557,-0.3538,-0.351,-0.3475,-0.3458,-0.345,-0.3413,-0.3416,-0.3419,-0.3419,-0.3427,-0.3431,-0.3434,-0.3389,-0.3389,-0.3389,0,0,-0.361,-0.3636,-0.3593,-0.3596,-0.3588,-0.3594,-0.3594,-0.3577,-0.3574,-0.355,-0.3552,-0.3539,-0.3479,-0.3474,-0.3465,-0.3458,-0.343,-0.3448,-0.3462,-0.347,-0.3474,-0.3477,-0.3435,-0.3434,-0.3446,-0.3446,-0.3446,0,-0.3584,-0.3569,-0.3568,-0.3548,-0.356,-0.3582,-0.3572,-0.3567,-0.3543,-0.3555,-0.3541,-0.3518,-0.3485,-0.349,-0.3486,-0.3464,-0.3448,-0.3452,-0.3474,-0.3477,-0.348,-0.3437,-0.3435,-0.3448,-0.3448,-0.3447,-0.3447,0,-0.3486,-0.3504,-0.3469,-0.3477,-0.3481,-0.3461,-0.3503,-0.3505,-0.3524,-0.3539,-0.3544,-0.3513,-0.3508,-0.3501,-0.3481,-0.3495,-0.3469,-0.3481,-0.3468,-0.3486,-0.3438,-0.3437,-0.345,-0.3449,-0.3449,-0.3449,0,0,-0.3351,-0.3399,-0.339,-0.3428,-0.3459,-0.3453,-0.3477,-0.3511,-0.3544,-0.3533,-0.356,-0.3537,-0.3544,-0.3535,-0.3527,-0.3527,-0.3514,-0.3507,-0.3506,-0.3467,-0.3496,-0.3377,-0.3363,-0.3536,-0.3536,-0.3537,-0.3444,0,-0.328,-0.3273,-0.331,-0.3328,-0.3347,-0.3417,-0.3447,-0.349,-0.352,-0.3544,-0.3559,-0.3563,-0.3554,-0.3551,-0.3556,-0.3533,-0.3515,-0.3535,-0.3482,-0.3479,-0.3376,-0.336,-0.3229,-0.3128,-0.3442,-0.3442,-0.3442,0,-0.3171,-0.32,-0.3215,-0.3325,-0.3335,-0.3353,-0.3438,-0.3466,-0.353,-0.3556,-0.3585,-0.3594,-0.3599,-0.3585,-0.3563,-0.3577,-0.3532,-0.3509,-0.3506,-0.3386,-0.3359,-0.3166,-0.3112,-0.3089,-0.3438,-0.3439,-0.3439,0,-0.3083,-0.3137,-0.3164,-0.3193,-0.3301,-0.3328,-0.3378,-0.3458,-0.3498,-0.3555,-0.3582,-0.3609,-0.3607,-0.3589,-0.3532,-0.3551,-0.3487,-0.3511,-0.3359,-0.3349,-0.322,-0.3197,-0.3139,-0.3485,-0.3485,-0.3486,-0.3486,0,-0.3007,-0.3025,-0.3131,-0.3148,-0.3189,-0.3281,-0.3326,-0.3389,-0.3472,-0.3506,-0.3572,-0.3588,-0.3612,-0.3581,-0.3532,-0.3419,-0.3485,-0.3345,-0.3321,-0.3221,-0.32,-0.3161,-0.3195,-0.3482,-0.3483,-0.3484,-0.3484,0,-0.2897,-0.2969,-0.3007,-0.3118,-0.3148,-0.3169,-0.3283,-0.332,-0.3421,-0.3462,-0.3479,-0.3563,-0.3522,-0.3505,-0.3454,-0.3397,-0.3247,-0.3253,-0.3102,-0.3061,-0.29,-0.2941,-0.2852,-0.2773,-0.3076,-0.3073,-0.307,0,-0.2837,-0.2847,-0.2951,-0.2969,-0.3011,-0.3072,-0.3116,-0.3255,-0.3302,-0.3428,-0.343,-0.3443,-0.3394,-0.3279,-0.3189,-0.3061,-0.309,-0.2885,-0.2903,-0.2852,-0.2882,-0.2922,-0.2866,-0.2733,-0.2727,-0.2723,-0.2719,0,-0.2714,-0.2751,-0.2785,-0.2834,-0.2875,-0.2932,-0.3008,-0.3047,-0.3199,-0.3241,-0.3263,-0.3232,-0.3156,-0.2983,-0.2853,-0.2772,-0.2815,-0.2787,-0.2793,-0.2644,-0.2629,-0.2552,-0.2813,-0.268,-0.2684,-0.2687,-0.2689,-0.269,-0.2592,-0.2589,-0.2636,-0.2666,-0.2718,-0.2749,-0.2754,-0.2842,-0.2879,-0.2914,-0.3004,-0.2923,-0.2849,-0.2641,-0.2552,-0.2397,-0.2498,-0.2352,-0.2411,-0.2461,-0.2368,-0.2509,-0.2322,-0.2324,-0.2325,-0.2327,-0.2328,0,-0.2428,-0.2446,-0.2467,-0.25,-0.2498,-0.2588,-0.2647,-0.2626,-0.26,-0.2646,-0.2622,-0.2546,-0.2366,-0.2322,-0.218,-0.2072,-0.2042,-0.2042,-0.2095,-0.2059,-0.2215,-0.2182,-0.1885,-0.1885,-0.1885,-0.1885,-0.1885,-0.1885,-0.2337,-0.2295,-0.2317,-0.2258,-0.2294,-0.2276,-0.2281,-0.2227,-0.2233,-0.213,-0.212,-0.2138,-0.2125,-0.2236,-0.2068,-0.1958,-0.1933,-0.186,-0.191,-0.2062,-0.2098,-0.2131,-0.2108,-0.18,-0.18,-0.1674,-0.1673,-0.1673]},{"header":{"parameterUnit":"m.s-1","parameterCategory":2,"la1":30.2991,"la2":30.254,"lo1":-89.0895,"lo2":-89.0444,"dy":0.0017,"dx":0.0017,"nx":28,"ny":28,"refTime":"2025-12-22T09:00:00:Z","depth":"0","parameterNumber":3,"parameterNumberName":"V-component_of_CURRENTS"},"data":[0,0,0,0,0,0,0,0,0,0,0,0,0,0,0,0,0,0,0,0,0,0,0,0,0,0,0,0,0,0,0,0,0,0,0,0,0,0,0,0,0,0,0,0,0,0,0,0,0,0,0,0,0,0,0,0,0,0,-0.0157,-0.0156,0,-0.0041,-0.004,-0.0038,0.005,0.005,0.0051,0.0052,0.0217,0.0221,0.0224,0,0,0,0,0,0,0,0,0,0,0,0,0,-0.0279,-0.0277,-0.0158,-0.0156,-0.0155,-0.0041,-0.004,-0.0038,0.005,0.005,0.0051,0.0052,0.0216,0.022,0.0225,0,0,0,0,0,0,0,0,0,0,0,0,0,-0.0201,-0.0277,-0.0158,-0.0097,-0.0091,-0.0041,-0.0039,-0.0038,0.0049,0.0051,0.0052,0.0053,0.0215,0.022,0.0225,0.0235,0,0,0.0242,0.0244,0,0,0,0,0,0,0,0,-0.0205,-0.0196,-0.0108,-0.0101,-0.0094,-0.0009,-0.0022,0.0056,0.0049,-0.0004,0.0052,0.0053,0.0145,0.0156,0.0175,0.0243,0.025,0.0243,0.0246,0.0248,0.025,0,0,0,0,0,0,0,-0.0211,-0.0201,-0.0111,-0.0106,-0.0098,-0.0067,-0.0055,-0.0007,0.0063,0.0001,0.0007,0.002,0.015,0.0169,0.018,0.0252,0.0242,0.0247,0.0251,0.0253,0.0367,0.0367,0,0,0,0,0,0,-0.0228,-0.0206,-0.0115,-0.0108,-0.0148,-0.0066,-0.0052,-0.0037,0.0062,0.0078,0.0019,0.0024,0.016,0.0173,0.0186,0.0218,0.0248,0.0253,0.0257,0.0368,0.0367,0.0367,0,0,0,0,0,0,-0.0231,-0.0221,-0.012,-0.0154,-0.0139,-0.0065,-0.0049,-0.0036,-0.0015,0.0075,0.0093,0.0026,0.0161,0.0178,0.0228,0.0225,0.0256,0.0261,0.0368,0.0368,0.0367,0.0273,0,0,0,0,0,0,-0.0235,-0.0222,-0.0226,-0.0156,-0.0138,-0.0103,-0.005,-0.0034,-0.0009,-0.0001,0.0087,0.0104,0.0163,0.0219,0.0234,0.0233,0.0265,0.0368,0.0368,0.0367,0.0276,0.0269,0.0263,0,0,0,0,0,-0.0239,-0.0255,-0.0227,-0.0216,-0.0142,-0.0104,-0.0093,-0.0036,-0.001,-0.0011,0.0055,0.0101,0.0227,0.0223,0.024,0.0241,0.0369,0.0368,0.0367,0.0279,0.0271,0.0264,0,0,0,0,0,0,-0.031,-0.0245,-0.0213,-0.0207,-0.0162,-0.0089,-0.0088,-0.0047,0.0003,0.0011,0.0097,0.0118,0.016,0.021,0.0204,0.0273,0.0306,0.0308,0.0233,0.0226,0.0219,0.0201,0.027,0,0,0,0,0,-0.0328,-0.0321,-0.025,-0.0248,-0.023,-0.0161,-0.0141,-0.01,-0.0044,-0.0021,0.0043,0.0111,0.017,0.0204,0.0258,0.0293,0.0358,0.0305,0.0299,0.0293,0.029,0.0385,0.0387,0.0365,0.0365,0.0365,0,0,-0.0355,-0.0319,-0.0315,-0.0263,-0.0225,-0.0208,-0.0146,-0.0124,-0.0105,-0.0011,0.0024,0.0087,0.0172,0.0214,0.0238,0.0257,0.0332,0.0292,0.0286,0.0287,0.0384,0.0387,0.0389,0.0365,0.0365,0.0365,0,0,-0.0409,-0.0374,-0.0384,-0.0354,-0.0303,-0.0257,-0.0255,-0.0186,-0.0151,-0.011,-0.0035,0.0025,0.0105,0.0173,0.0217,0.0206,0.029,0.0221,0.018,0.0272,0.0275,0.0278,0.0357,0.0368,0.0222,0.0222,0.0222,0,-0.0446,-0.044,-0.0385,-0.0384,-0.0366,-0.0285,-0.029,-0.0244,-0.0167,-0.0136,-0.0113,0.0024,0.0089,0.0164,0.0159,0.0192,0.0254,0.02,0.0263,0.0268,0.0273,0.0354,0.0367,0.0217,0.0218,0.0218,0.0219,0,-0.0495,-0.0493,-0.0501,-0.0468,-0.0444,-0.0439,-0.0365,-0.0337,-0.0286,-0.0224,-0.0149,-0.0055,0.0031,0.0059,0.0106,0.0172,0.0206,0.0239,0.028,0.0269,0.0355,0.0371,0.0211,0.0212,0.0214,0.0215,0,0,-0.057,-0.0543,-0.0545,-0.0547,-0.0488,-0.0476,-0.0446,-0.0387,-0.036,-0.0277,-0.0227,-0.0128,-0.0065,-0.0012,0.0064,0.014,0.0221,0.0192,0.0199,0.0264,0.042,0.0461,0.0483,0.0267,0.0269,0.0271,0.0463,0,-0.0625,-0.0655,-0.0615,-0.0637,-0.0645,-0.0568,-0.0547,-0.0481,-0.0408,-0.0341,-0.0222,-0.0148,-0.0093,-0.005,0.0033,0.0178,0.0259,0.0166,0.0426,0.0434,0.0467,0.0501,0.054,0.0717,0.0479,0.0482,0.0484,0,-0.0678,-0.0694,-0.073,-0.0719,-0.0714,-0.0708,-0.0654,-0.0621,-0.05,-0.0441,-0.0337,-0.0233,-0.0105,-0.0061,0.0179,0.0117,0.0252,0.0364,0.0375,0.0458,0.0505,0.0692,0.0755,0.0935,0.0509,0.0507,0.0505,0,-0.0759,-0.0771,-0.0807,-0.0803,-0.0774,-0.0772,-0.0748,-0.0653,-0.0619,-0.0493,-0.0445,-0.0276,-0.0176,0.0004,0.023,0.0211,0.0501,0.0512,0.0681,0.0685,0.0793,0.0802,0.1057,0.0683,0.0683,0.0682,0.0681,0,-0.083,-0.0857,-0.0851,-0.0873,-0.091,-0.0854,-0.0857,-0.0803,-0.0709,-0.0654,-0.0504,-0.0409,-0.0153,0.0046,0.023,0.0511,0.0512,0.0686,0.0745,0.0759,0.0763,0.0984,0.1043,0.0689,0.0688,0.0686,0.0685,0,-0.0906,-0.0899,-0.0947,-0.0947,-0.095,-0.0976,-0.0946,-0.0935,-0.0838,-0.0759,-0.0718,-0.0484,-0.0215,0.0045,0.0373,0.0524,0.0901,0.0874,0.0865,0.0919,0.1209,0.1259,0.1567,0.1682,0.1084,0.1086,0.1088,0,-0.0945,-0.0978,-0.1018,-0.1054,-0.1059,-0.1082,-0.109,-0.1012,-0.0985,-0.0791,-0.0752,-0.0473,-0.0247,0.0234,0.0557,0.0905,0.1043,0.1131,0.1098,0.1248,0.1349,0.138,0.1456,0.1209,0.1212,0.1214,0.1216,0,-0.1021,-0.1032,-0.1071,-0.1154,-0.1188,-0.1216,-0.1214,-0.121,-0.1085,-0.0971,-0.0754,-0.0549,-0.0077,0.0355,0.0791,0.0998,0.1262,0.1187,0.137,0.1492,0.152,0.1651,0.1044,0.1236,0.1234,0.1233,0.1232,0.1231,-0.1066,-0.112,-0.1173,-0.1244,-0.1291,-0.1324,-0.1312,-0.1266,-0.1177,-0.0944,-0.0766,-0.039,0.0178,0.081,0.1041,0.1509,0.1461,0.1647,0.1704,0.1728,0.1819,0.1239,0.1472,0.1471,0.147,0.147,0.1469,0,-0.1115,-0.1172,-0.1256,-0.1329,-0.1383,-0.1382,-0.1362,-0.1269,-0.1126,-0.0888,-0.0619,0.0041,0.0605,0.1118,0.1748,0.2007,0.2065,0.2139,0.2208,0.2269,0.1801,0.1784,0.2061,0.2061,0.2061,0.2061,0.206,0.206,-0.1142,-0.1228,-0.1274,-0.1377,-0.1421,-0.1373,-0.1336,-0.1153,-0.0942,-0.048,-0.0086,0.0207,0.088,0.1837,0.2421,0.2483,0.2706,0.269,0.281,0.2486,0.2444,0.2404,0.2406,0.2809,0.2809,0.3269,0.3273,0.3277]}],[{"header":{"parameterUnit":"m.s-1","parameterCategory":2,"la1":30.2991,"la2":30.254,"lo1":-89.0895,"lo2":-89.0444,"dy":0.0017,"dx":0.0017,"nx":28,"ny":28,"refTime":"2025-12-22T09:00:00:Z","depth":"2","parameterNumber":2,"parameterNumberName":"U-component_of_CURRENTS"},"data":[0,0,0,0,0,0,0,0,0,0,0,0,0,0,0,0,0,0,0,0,0,0,0,0,0,0,0,0,0,0,0,0,0,0,0,0,0,0,0,0,0,0,0,0,0,0,0,0,0,0,0,0,0,0,0,0,0,0,-0.2866,-0.2866,0,-0.2921,-0.2921,-0.2921,-0.2916,-0.2916,-0.2915,-0.2915,-0.2905,-0.2905,-0.2905,0,0,0,0,0,0,0,0,0,0,0,0,0,-0.2743,-0.2745,-0.2865,-0.2867,-0.2868,-0.2921,-0.2921,-0.2921,-0.2916,-0.2916,-0.2915,-0.2914,-0.2905,-0.2905,-0.2905,0,0,0,0,0,0,0,0,0,0,0,0,0,-0.2793,-0.2746,-0.2865,-0.2874,-0.2876,-0.2921,-0.2921,-0.2922,-0.2916,-0.2916,-0.2915,-0.2914,-0.2904,-0.2905,-0.2905,-0.2922,0,0,-0.2906,-0.2906,0,0,0,0,0,0,0,0,-0.2791,-0.2797,-0.2872,-0.2874,-0.2876,-0.2914,-0.2874,-0.292,-0.2916,-0.2897,-0.2915,-0.2914,-0.2905,-0.2905,-0.2913,-0.2922,-0.2922,-0.2906,-0.2906,-0.2906,-0.2907,0,0,0,0,0,0,0,-0.2787,-0.2795,-0.2884,-0.2873,-0.2875,-0.2871,-0.2877,-0.2883,-0.29,-0.2899,-0.2899,-0.2912,-0.2905,-0.2912,-0.2912,-0.2921,-0.2906,-0.2906,-0.2907,-0.2907,-0.2949,-0.295,0,0,0,0,0,0,-0.279,-0.2792,-0.2882,-0.2886,-0.2834,-0.2874,-0.2881,-0.2899,-0.2902,-0.2903,-0.2912,-0.2911,-0.2912,-0.2912,-0.2912,-0.2939,-0.2906,-0.2907,-0.2907,-0.2948,-0.2949,-0.295,0,0,0,0,0,0,-0.2787,-0.2798,-0.288,-0.2842,-0.2853,-0.2878,-0.2898,-0.2901,-0.2917,-0.2914,-0.2912,-0.2926,-0.2912,-0.2911,-0.2925,-0.2938,-0.2907,-0.2907,-0.2947,-0.2949,-0.295,-0.2988,0,0,0,0,0,0,-0.2783,-0.2796,-0.2809,-0.2843,-0.2855,-0.2914,-0.29,-0.2903,-0.2927,-0.2926,-0.2925,-0.2923,-0.2911,-0.2925,-0.2925,-0.2938,-0.2907,-0.2946,-0.2948,-0.2949,-0.2986,-0.299,-0.2995,0,0,0,0,0,-0.2779,-0.2808,-0.281,-0.2821,-0.2873,-0.2915,-0.2921,-0.2932,-0.2928,-0.2942,-0.294,-0.2924,-0.2936,-0.2926,-0.2926,-0.2939,-0.2945,-0.2947,-0.2949,-0.2983,-0.299,-0.2995,0,0,0,0,0,0,-0.2759,-0.2811,-0.2814,-0.2856,-0.2884,-0.2915,-0.2934,-0.2942,-0.2953,-0.2951,-0.2939,-0.2938,-0.2954,-0.2945,-0.2935,-0.2957,-0.2937,-0.2939,-0.2963,-0.2968,-0.2973,-0.297,-0.2908,0,0,0,0,0,-0.2762,-0.2798,-0.2837,-0.2869,-0.2885,-0.291,-0.2928,-0.2939,-0.2956,-0.2961,-0.296,-0.2958,-0.2964,-0.2965,-0.2968,-0.2983,-0.2964,-0.2991,-0.2995,-0.2999,-0.2998,-0.3001,-0.3005,-0.2957,-0.2957,-0.2957,0,0,-0.2764,-0.2797,-0.2816,-0.2867,-0.2888,-0.2915,-0.2918,-0.2955,-0.2973,-0.2958,-0.2977,-0.2978,-0.2973,-0.2988,-0.2994,-0.2981,-0.3,-0.3002,-0.3005,-0.3002,-0.3004,-0.3008,-0.3012,-0.2959,-0.2958,-0.2958,0,0,-0.2775,-0.2813,-0.2837,-0.2867,-0.2909,-0.293,-0.2943,-0.2979,-0.299,-0.3014,-0.3006,-0.3017,-0.3024,-0.3024,-0.3024,-0.3059,-0.3027,-0.3059,-0.3076,-0.308,-0.3083,-0.3087,-0.305,-0.305,-0.3057,-0.3057,-0.3058,0,-0.2767,-0.2806,-0.2849,-0.2876,-0.2902,-0.2937,-0.296,-0.2985,-0.3018,-0.3031,-0.3022,-0.3046,-0.304,-0.3063,-0.3068,-0.3069,-0.3051,-0.3055,-0.3085,-0.3088,-0.309,-0.3053,-0.3052,-0.306,-0.3059,-0.3059,-0.3059,0,-0.2786,-0.2821,-0.2842,-0.2887,-0.2921,-0.2955,-0.2996,-0.3026,-0.3043,-0.306,-0.3091,-0.3091,-0.3101,-0.3105,-0.3092,-0.3114,-0.3088,-0.3093,-0.3069,-0.3097,-0.3056,-0.3054,-0.3063,-0.3062,-0.3061,-0.3061,0,0,-0.2745,-0.2836,-0.2838,-0.2864,-0.2931,-0.296,-0.3007,-0.3054,-0.3082,-0.3108,-0.3131,-0.3147,-0.315,-0.315,-0.3146,-0.3146,-0.3139,-0.3124,-0.3123,-0.3083,-0.3116,-0.301,-0.2998,-0.3152,-0.3152,-0.3153,-0.3073,0,-0.2735,-0.2787,-0.2837,-0.2885,-0.2915,-0.2976,-0.3018,-0.3068,-0.3102,-0.3135,-0.3153,-0.3172,-0.3168,-0.317,-0.3175,-0.3153,-0.314,-0.3158,-0.3098,-0.3096,-0.2995,-0.2995,-0.2779,-0.2683,-0.3071,-0.307,-0.307,0,-0.2714,-0.2761,-0.2804,-0.2892,-0.291,-0.2943,-0.3019,-0.3062,-0.3127,-0.3153,-0.3188,-0.32,-0.3211,-0.32,-0.3181,-0.3193,-0.3154,-0.3132,-0.3129,-0.3015,-0.2987,-0.2721,-0.2665,-0.3067,-0.3067,-0.3068,-0.3068,0,-0.2646,-0.273,-0.2766,-0.2795,-0.2898,-0.2928,-0.2979,-0.3057,-0.3095,-0.3158,-0.3182,-0.3213,-0.3216,-0.3199,-0.3154,-0.3168,-0.3112,-0.3127,-0.2993,-0.2984,-0.278,-0.2752,-0.3105,-0.3105,-0.3105,-0.3105,-0.3105,0,-0.261,-0.2634,-0.2738,-0.2757,-0.28,-0.2888,-0.2935,-0.2996,-0.3075,-0.3104,-0.3177,-0.3189,-0.3217,-0.3194,-0.3153,-0.3052,-0.311,-0.2983,-0.296,-0.2784,-0.2759,-0.3085,-0.3083,-0.3102,-0.3103,-0.3103,-0.3104,0,-0.2517,-0.259,-0.2632,-0.2737,-0.2767,-0.2791,-0.2896,-0.2928,-0.3025,-0.3062,-0.308,-0.3161,-0.3128,-0.3124,-0.3079,-0.303,-0.2956,-0.2904,-0.2675,-0.2626,-0.2824,-0.2826,-0.275,-0.2745,-0.2742,-0.2738,-0.2736,0,-0.2471,-0.2486,-0.2585,-0.2602,-0.2644,-0.2705,-0.2742,-0.287,-0.2908,-0.3023,-0.3021,-0.3042,-0.2995,-0.2902,-0.2822,-0.2714,-0.283,-0.2474,-0.247,-0.2804,-0.279,-0.2798,-0.2804,-0.2203,-0.2196,-0.2191,-0.2186,0,-0.2368,-0.2404,-0.2438,-0.2481,-0.2519,-0.2567,-0.2634,-0.2657,-0.2793,-0.2827,-0.2838,-0.2811,-0.2753,-0.2552,-0.2454,-0.2374,-0.2479,-0.2358,-0.2758,-0.2337,-0.2286,-0.2273,-0.2298,-0.2137,-0.2142,-0.2146,-0.2148,-0.215,-0.2265,-0.2262,-0.2306,-0.233,-0.2372,-0.2385,-0.2358,-0.2442,-0.2458,-0.246,-0.2562,-0.2449,-0.2439,-0.2159,-0.2045,-0.1974,-0.2147,-0.2066,-0.2084,-0.2108,-0.207,-0.2016,-0.1807,-0.181,-0.1813,-0.1815,-0.1817,0,-0.2124,-0.2137,-0.2151,-0.217,-0.2141,-0.2222,-0.2242,-0.2171,-0.211,-0.2159,-0.2124,-0.1884,-0.1758,-0.176,-0.1567,-0.1535,-0.1536,-0.1482,-0.1489,-0.1537,-0.158,-0.1518,-0.1107,-0.1106,-0.1104,-0.1102,0,0,-0.2046,-0.2003,-0.2014,-0.1919,-0.1926,-0.1807,-0.1767,-0.1691,-0.1665,-0.1554,-0.1508,-0.1635,-0.1678,-0.1387,-0.1327,-0.1183,-0.1346,-0.1121,-0.1685,-0.1738,-0.1779,-0.1906,-0.1862,0,0,0,0,0]},{"header":{"parameterUnit":"m.s-1","parameterCategory":2,"la1":30.2991,"la2":30.254,"lo1":-89.0895,"lo2":-89.0444,"dy":0.0017,"dx":0.0017,"nx":28,"ny":28,"refTime":"2025-12-22T09:00:00:Z","depth":"2","parameterNumber":3,"parameterNumberName":"V-component_of_CURRENTS"},"data":[0,0,0,0,0,0,0,0,0,0,0,0,0,0,0,0,0,0,0,0,0,0,0,0,0,0,0,0,0,0,0,0,0,0,0,0,0,0,0,0,0,0,0,0,0,0,0,0,0,0,0,0,0,0,0,0,0,0,-0.0324,-0.0323,0,-0.0203,-0.0201,-0.02,-0.0128,-0.0128,-0.0128,-0.0127,0.0042,0.0046,0.005,0,0,0,0,0,0,0,0,0,0,0,0,0,-0.0421,-0.042,-0.0324,-0.0323,-0.0321,-0.0203,-0.0201,-0.0199,-0.0128,-0.0128,-0.0128,-0.0127,0.0041,0.0046,0.0051,0,0,0,0,0,0,0,0,0,0,0,0,0,-0.0346,-0.0419,-0.0325,-0.0272,-0.0267,-0.0203,-0.0201,-0.0199,-0.0128,-0.0128,-0.0127,-0.0127,0.0039,0.0045,0.0052,0.0085,0,0,0.0071,0.0074,0,0,0,0,0,0,0,0,-0.035,-0.0342,-0.0281,-0.0276,-0.0269,-0.0181,-0.0173,-0.0102,-0.0128,-0.0179,-0.0127,-0.0127,-0.0029,-0.0017,0.0006,0.0093,0.0101,0.0072,0.0076,0.0079,0.008,0,0,0,0,0,0,0,-0.0356,-0.0347,-0.0275,-0.028,-0.0273,-0.023,-0.022,-0.0159,-0.0106,-0.0175,-0.017,-0.0158,-0.0025,-0.0,0.0011,0.0103,0.0072,0.0078,0.0082,0.0084,0.0234,0.0234,0,0,0,0,0,0,-0.0377,-0.0352,-0.0279,-0.0271,-0.0311,-0.0229,-0.0217,-0.0209,-0.0107,-0.0092,-0.0159,-0.0155,-0.0012,0.0003,0.0017,0.0062,0.0079,0.0085,0.0088,0.0234,0.0234,0.0234,0,0,0,0,0,0,-0.038,-0.0372,-0.0284,-0.031,-0.0296,-0.0228,-0.0219,-0.0207,-0.0181,-0.0096,-0.0079,-0.0146,-0.0011,0.0008,0.0069,0.0069,0.0088,0.0093,0.0234,0.0234,0.0234,0.0152,0,0,0,0,0,0,-0.0383,-0.0374,-0.0376,-0.0311,-0.0295,-0.0254,-0.0219,-0.0205,-0.0175,-0.0169,-0.0079,-0.0063,-0.0009,0.0058,0.0075,0.0078,0.0099,0.0234,0.0234,0.0234,0.0155,0.015,0.0145,0,0,0,0,0,-0.0387,-0.0393,-0.0377,-0.0368,-0.0301,-0.0254,-0.0242,-0.0192,-0.0175,-0.0167,-0.0106,-0.0066,0.0071,0.0064,0.0083,0.0088,0.0234,0.0234,0.0234,0.0157,0.0151,0.0145,0,0,0,0,0,0,-0.0436,-0.0384,-0.0366,-0.0356,-0.0313,-0.0243,-0.0231,-0.0197,-0.0143,-0.0137,-0.0059,-0.0039,0.0012,0.0062,0.0052,0.0132,0.0158,0.0162,0.0092,0.0087,0.0082,0.0062,0.0104,0,0,0,0,0,-0.045,-0.0441,-0.0384,-0.0377,-0.0359,-0.0297,-0.0272,-0.0239,-0.0182,-0.0158,-0.0096,-0.003,0.0029,0.0065,0.0123,0.0171,0.0223,0.0186,0.0181,0.0177,0.0174,0.0248,0.0249,0.0235,0.0235,0.0235,0,0,-0.0468,-0.0439,-0.0434,-0.0387,-0.0349,-0.0329,-0.0281,-0.0249,-0.023,-0.0147,-0.0105,-0.0045,0.0036,0.0086,0.0114,0.0129,0.0208,0.0177,0.0172,0.0172,0.0248,0.0249,0.0251,0.0235,0.0235,0.0235,0,0,-0.0499,-0.0474,-0.0475,-0.0445,-0.0396,-0.0356,-0.0352,-0.0286,-0.0255,-0.0207,-0.0145,-0.0086,0.0002,0.0062,0.0103,0.0109,0.0175,0.0124,0.0091,0.0163,0.0164,0.0166,0.0228,0.0237,0.0126,0.0126,0.0126,0,-0.0524,-0.0518,-0.0469,-0.0461,-0.0445,-0.0375,-0.0374,-0.0329,-0.0253,-0.0227,-0.0206,-0.0074,-0.0008,0.0063,0.0062,0.0098,0.0145,0.0104,0.0155,0.0158,0.0162,0.0225,0.0236,0.0122,0.0123,0.0123,0.0124,0,-0.055,-0.0549,-0.0547,-0.0518,-0.0492,-0.048,-0.0417,-0.0387,-0.0344,-0.0293,-0.0222,-0.0129,-0.0052,-0.0021,0.0024,0.0081,0.0108,0.0135,0.0165,0.0158,0.0226,0.0238,0.0117,0.0118,0.0119,0.012,0,0,-0.0602,-0.0574,-0.0575,-0.058,-0.0524,-0.051,-0.0478,-0.0428,-0.0409,-0.0328,-0.029,-0.0186,-0.0135,-0.0085,-0.0014,0.0051,0.0115,0.0095,0.01,0.0146,0.0268,0.029,0.0306,0.0149,0.0151,0.0152,0.0303,0,-0.064,-0.0658,-0.0623,-0.0638,-0.0644,-0.058,-0.0559,-0.0503,-0.0443,-0.0387,-0.0279,-0.0214,-0.0158,-0.012,-0.0048,0.0074,0.0144,0.0071,0.0276,0.0282,0.0296,0.032,0.0276,0.0407,0.0315,0.0317,0.0318,0,-0.0676,-0.0687,-0.0714,-0.071,-0.0705,-0.0698,-0.0659,-0.0629,-0.0528,-0.0479,-0.0391,-0.03,-0.0188,-0.0142,0.0059,0.0008,0.0126,0.0223,0.0232,0.029,0.0328,0.0402,0.0433,0.0339,0.0338,0.0336,0.0335,0,-0.0745,-0.0751,-0.0782,-0.0779,-0.0755,-0.0755,-0.0736,-0.0659,-0.0636,-0.0531,-0.0495,-0.035,-0.0267,-0.0112,0.0085,0.0074,0.031,0.0325,0.0461,0.0464,0.0486,0.0488,0.0471,0.0471,0.047,0.047,0.0469,0,-0.0802,-0.0827,-0.0822,-0.0841,-0.0878,-0.0829,-0.084,-0.0795,-0.0722,-0.0688,-0.0551,-0.048,-0.0254,-0.0089,0.0075,0.0306,0.0308,0.0463,0.0509,0.0456,0.0453,0.0441,0.0436,0.0475,0.0474,0.0473,0.0472,0,-0.0868,-0.0862,-0.0905,-0.0908,-0.0913,-0.0939,-0.0924,-0.0922,-0.0842,-0.0791,-0.0758,-0.0563,-0.0342,-0.0112,0.0165,0.0299,0.0512,0.0596,0.0513,0.0547,0.0618,0.0607,0.0755,0.0758,0.0759,0.0761,0.0762,0,-0.0902,-0.0931,-0.097,-0.1006,-0.1012,-0.1039,-0.1052,-0.0992,-0.0979,-0.0834,-0.081,-0.0583,-0.0406,-0.0,0.0277,0.0577,0.0587,0.0705,0.0678,0.062,0.065,0.0636,0.0622,0.0679,0.068,0.068,0.068,0,-0.097,-0.0981,-0.1017,-0.1097,-0.1134,-0.1168,-0.1176,-0.1182,-0.109,-0.1009,-0.0852,-0.0694,-0.0302,0.0027,0.0406,0.0573,0.0645,0.0722,0.0711,0.0602,0.0557,0.0583,0.0571,0.0684,0.0684,0.0683,0.0683,0.0683,-0.1013,-0.1062,-0.1112,-0.1182,-0.1231,-0.1273,-0.1292,-0.1261,-0.1209,-0.1056,-0.0898,-0.0621,-0.0315,0.0229,0.0488,0.0728,0.0728,0.0788,0.0783,0.0779,0.0731,0.0691,0.0834,0.0834,0.0835,0.0835,0.0836,0,-0.1064,-0.1116,-0.1194,-0.1269,-0.1332,-0.1333,-0.1351,-0.1326,-0.1247,-0.1055,-0.0858,-0.0497,-0.0118,0.0205,0.0583,0.0804,0.0782,0.0838,0.0762,0.0757,0.0753,0.07,0.0798,0.0798,0.0799,0.0799,0,0,-0.1092,-0.1172,-0.1213,-0.1326,-0.138,-0.1426,-0.1429,-0.1356,-0.1218,-0.101,-0.0785,-0.049,-0.0102,0.0157,0.0431,0.0628,0.0635,0.0645,0.0652,0.0524,0.0518,0.0701,0.0613,0,0,0,0,0]}],[{"header":{"parameterUnit":"m.s-1","parameterCategory":2,"la1":30.2991,"la2":30.254,"lo1":-89.0895,"lo2":-89.0444,"dy":0.0017,"dx":0.0017,"nx":28,"ny":28,"refTime":"2025-12-22T09:00:00:Z","depth":"4","parameterNumber":2,"parameterNumberName":"U-component_of_CURRENTS"},"data":[0,0,0,0,0,0,0,0,0,0,0,0,0,0,0,0,0,0,0,0,0,0,0,0,0,0,0,0,0,0,0,0,0,0,0,0,0,0,0,0,0,0,0,0,0,0,0,0,0,0,0,0,0,0,0,0,0,0,-0.1912,-0.1913,0,-0.2009,-0.201,-0.2011,-0.2063,-0.2063,-0.2063,-0.2063,-0.2159,-0.2161,-0.2164,0,0,0,0,0,0,0,0,0,0,0,0,0,-0.1774,-0.1776,-0.1911,-0.1913,-0.1914,-0.2009,-0.201,-0.2012,-0.2063,-0.2063,-0.2063,-0.2063,-0.2158,-0.2161,-0.2164,0,0,0,0,0,0,0,0,0,0,0,0,0,-0.1847,-0.1776,-0.1911,-0.1952,-0.1957,-0.2009,-0.201,-0.2012,-0.2063,-0.2063,-0.2063,-0.2064,-0.2157,-0.2161,-0.2164,-0.2179,0,0,-0.2175,-0.2176,0,0,0,0,0,0,0,0,-0.1843,-0.1852,-0.1945,-0.195,-0.1955,-0.2026,-0.1997,-0.2068,-0.2062,-0.2021,-0.2063,-0.2064,-0.2115,-0.2122,-0.2137,-0.2184,-0.2188,-0.2175,-0.2177,-0.2179,-0.218,0,0,0,0,0,0,0,-0.1838,-0.1848,-0.1949,-0.1946,-0.1953,-0.1968,-0.1978,-0.2011,-0.2063,-0.2024,-0.2029,-0.2042,-0.2118,-0.2134,-0.214,-0.2189,-0.2175,-0.2178,-0.218,-0.2182,-0.2328,-0.233,0,0,0,0,0,0,-0.1829,-0.1843,-0.1946,-0.1952,-0.19,-0.197,-0.1982,-0.2001,-0.2063,-0.2074,-0.2042,-0.2044,-0.2128,-0.2136,-0.2144,-0.2241,-0.2179,-0.2182,-0.2184,-0.2327,-0.2329,-0.2331,0,0,0,0,0,0,-0.1825,-0.1837,-0.1942,-0.19,-0.1915,-0.1972,-0.1994,-0.2003,-0.2054,-0.2077,-0.2087,-0.2087,-0.2128,-0.2139,-0.2208,-0.2242,-0.2184,-0.2187,-0.2325,-0.2327,-0.233,-0.2386,0,0,0,0,0,0,-0.1821,-0.1835,-0.1863,-0.19,-0.1917,-0.1999,-0.1994,-0.2005,-0.206,-0.2066,-0.2118,-0.2126,-0.2129,-0.2203,-0.2212,-0.2245,-0.219,-0.2322,-0.2326,-0.2329,-0.2382,-0.239,-0.2397,0,0,0,0,0,-0.1816,-0.1853,-0.1864,-0.1878,-0.1948,-0.2001,-0.2012,-0.2051,-0.2063,-0.2096,-0.2133,-0.2126,-0.223,-0.2208,-0.2217,-0.2253,-0.2321,-0.2325,-0.2329,-0.2378,-0.2388,-0.2397,0,0,0,0,0,0,-0.1805,-0.1862,-0.1876,-0.1928,-0.1972,-0.2011,-0.2054,-0.2073,-0.2129,-0.2145,-0.2157,-0.2168,-0.2238,-0.2242,-0.2217,-0.2305,-0.2271,-0.2277,-0.2305,-0.2315,-0.2323,-0.2309,-0.2193,0,0,0,0,0,-0.1815,-0.1865,-0.1907,-0.1954,-0.1979,-0.2021,-0.2054,-0.2081,-0.2126,-0.2153,-0.2188,-0.2224,-0.2256,-0.2284,-0.2316,-0.2371,-0.2346,-0.2398,-0.2405,-0.2412,-0.2408,-0.2408,-0.2415,-0.2344,-0.2344,-0.2344,0,0,-0.1824,-0.1863,-0.1892,-0.1956,-0.1996,-0.204,-0.2044,-0.2109,-0.2149,-0.2154,-0.2236,-0.2261,-0.2279,-0.2338,-0.2368,-0.235,-0.2419,-0.2417,-0.2422,-0.2414,-0.2413,-0.242,-0.2426,-0.2347,-0.2346,-0.2346,0,0,-0.1856,-0.1904,-0.1949,-0.1991,-0.2059,-0.2085,-0.211,-0.2171,-0.2209,-0.2281,-0.2289,-0.2336,-0.2399,-0.2412,-0.2423,-0.2494,-0.2461,-0.251,-0.254,-0.2541,-0.2546,-0.2551,-0.2519,-0.252,-0.2512,-0.2512,-0.2512,0,-0.1868,-0.1921,-0.1971,-0.2019,-0.2057,-0.2107,-0.2151,-0.2198,-0.2275,-0.2305,-0.2319,-0.2406,-0.2427,-0.2473,-0.2497,-0.2511,-0.2494,-0.2501,-0.2549,-0.2553,-0.2556,-0.2523,-0.2524,-0.2516,-0.2515,-0.2515,-0.2515,0,-0.1913,-0.1969,-0.2004,-0.2077,-0.2125,-0.2181,-0.2237,-0.2299,-0.2347,-0.2379,-0.2457,-0.2489,-0.2531,-0.255,-0.2547,-0.2587,-0.2561,-0.2558,-0.252,-0.2567,-0.2529,-0.2528,-0.252,-0.2519,-0.2518,-0.2517,0,0,-0.1901,-0.2013,-0.2027,-0.2065,-0.2161,-0.22,-0.2281,-0.235,-0.2396,-0.2473,-0.2519,-0.2584,-0.2599,-0.2612,-0.262,-0.2626,-0.2635,-0.2606,-0.2605,-0.2564,-0.2617,-0.2446,-0.2428,-0.2643,-0.2644,-0.2644,-0.2576,0,-0.192,-0.2005,-0.2061,-0.2144,-0.2187,-0.2261,-0.2324,-0.2397,-0.2459,-0.252,-0.256,-0.2612,-0.2623,-0.2645,-0.2658,-0.2643,-0.2638,-0.2652,-0.2586,-0.2584,-0.2418,-0.2424,-0.2646,-0.2576,-0.2575,-0.2575,-0.2575,0,-0.1928,-0.1988,-0.2068,-0.2168,-0.2195,-0.2256,-0.2356,-0.2421,-0.251,-0.2556,-0.2616,-0.2645,-0.268,-0.2676,-0.2675,-0.2685,-0.2655,-0.2637,-0.2633,-0.2451,-0.2411,-0.2523,-0.2573,-0.2573,-0.2574,-0.2574,-0.2574,0,-0.1866,-0.1985,-0.2048,-0.2086,-0.2209,-0.2264,-0.2333,-0.2433,-0.2482,-0.2577,-0.261,-0.2666,-0.2688,-0.2681,-0.2655,-0.2669,-0.2622,-0.2634,-0.2449,-0.2436,-0.2586,-0.2582,-0.2618,-0.2618,-0.2618,-0.2618,-0.2618,0,-0.1837,-0.1891,-0.2031,-0.2064,-0.2138,-0.224,-0.2319,-0.2395,-0.2489,-0.2521,-0.2622,-0.263,-0.2693,-0.2677,-0.265,-0.2528,-0.2618,-0.2436,-0.2404,-0.2611,-0.2611,-0.2584,-0.2581,-0.2615,-0.2616,-0.2616,-0.2617,0,-0.1747,-0.1844,-0.192,-0.2063,-0.2109,-0.2162,-0.2297,-0.2337,-0.2452,-0.2493,-0.252,-0.2604,-0.2576,-0.2596,-0.2566,-0.2493,-0.2413,-0.2348,-0.2542,-0.2526,-0.2227,-0.2228,-0.2128,-0.2122,-0.2116,-0.2111,-0.2107,0,-0.1702,-0.1737,-0.1894,-0.1933,-0.2004,-0.2102,-0.2153,-0.2294,-0.2326,-0.244,-0.2426,-0.246,-0.2487,-0.2291,-0.235,-0.2267,-0.2249,-0.2198,-0.2234,-0.2196,-0.2176,-0.2187,-0.2195,-0.2098,-0.2097,-0.2095,-0.2094,0,-0.1605,-0.168,-0.1741,-0.1824,-0.1895,-0.1958,-0.2044,-0.2046,-0.218,-0.2311,-0.2249,-0.2223,-0.2183,-0.2153,-0.2101,-0.2053,-0.2229,-0.2139,-0.2151,-0.2185,-0.2159,-0.2147,-0.2162,-0.2074,-0.2077,-0.2079,-0.208,0,-0.1527,-0.1544,-0.1631,-0.1683,-0.1764,-0.1769,-0.1845,-0.1863,-0.1909,-0.2043,-0.2009,-0.2051,-0.2137,-0.2038,-0.199,-0.1927,-0.191,-0.1858,-0.1885,-0.1908,-0.1871,-0.1808,-0.1568,0,0,0,0,0,-0.1438,-0.1436,-0.1476,-0.1522,-0.1592,-0.163,-0.1741,-0.1818,-0.1949,-0.184,-0.1918,-0.1867,-0.1803,-0.1834,-0.1721,-0.1903,-0.1926,-0.1767,-0.1884,-0.1966,-0.1989,-0.1968,0,0,0,0,0,0,-0.1375,-0.1411,-0.142,-0.1364,-0.1358,-0.141,-0.1466,-0.1563,-0.1518,-0.1658,-0.1623,-0.1743,-0.1701,-0.1816,-0.1673,-0.1684,-0.1717,-0.1814,-0.1808,-0.1953,-0.1974,-0.1992,-0.1979,0,0,0,0,0]},{"header":{"parameterUnit":"m.s-1","parameterCategory":2,"la1":30.2991,"la2":30.254,"lo1":-89.0895,"lo2":-89.0444,"dy":0.0017,"dx":0.0017,"nx":28,"ny":28,"refTime":"2025-12-22T09:00:00:Z","depth":"4","parameterNumber":3,"parameterNumberName":"V-component_of_CURRENTS"},"data":[0,0,0,0,0,0,0,0,0,0,0,0,0,0,0,0,0,0,0,0,0,0,0,0,0,0,0,0,0,0,0,0,0,0,0,0,0,0,0,0,0,0,0,0,0,0,0,0,0,0,0,0,0,0,0,0,0,0,-0.0275,-0.0274,0,-0.0196,-0.0195,-0.0194,-0.0154,-0.0154,-0.0154,-0.0154,-0.0021,-0.0017,-0.0013,0,0,0,0,0,0,0,0,0,0,0,0,0,-0.0322,-0.0322,-0.0275,-0.0274,-0.0273,-0.0196,-0.0195,-0.0194,-0.0154,-0.0154,-0.0154,-0.0154,-0.0022,-0.0017,-0.0013,0,0,0,0,0,0,0,0,0,0,0,0,0,-0.0278,-0.0322,-0.0275,-0.0245,-0.0241,-0.0197,-0.0195,-0.0194,-0.0154,-0.0154,-0.0154,-0.0154,-0.0023,-0.0018,-0.0013,0.0023,0,0,0.0004,0.0006,0,0,0,0,0,0,0,0,-0.028,-0.0276,-0.025,-0.0247,-0.0243,-0.0186,-0.0163,-0.0119,-0.0154,-0.0186,-0.0154,-0.0154,-0.0072,-0.0062,-0.0046,0.0029,0.0035,0.0005,0.0008,0.001,0.0012,0,0,0,0,0,0,0,-0.0284,-0.0279,-0.0242,-0.0249,-0.0245,-0.0212,-0.0206,-0.0154,-0.0127,-0.0183,-0.018,-0.0173,-0.0069,-0.0052,-0.0043,0.0037,0.0004,0.0009,0.0013,0.0015,0.0147,0.0147,0,0,0,0,0,0,-0.0299,-0.0282,-0.0245,-0.024,-0.0264,-0.0212,-0.0205,-0.0203,-0.0129,-0.0118,-0.0173,-0.0172,-0.0061,-0.0049,-0.0038,0.0001,0.001,0.0015,0.0018,0.0147,0.0147,0.0147,0,0,0,0,0,0,-0.0301,-0.0297,-0.0248,-0.026,-0.0252,-0.0211,-0.0209,-0.0202,-0.0186,-0.0122,-0.011,-0.0167,-0.006,-0.0045,0.0004,0.0007,0.0018,0.0023,0.0146,0.0147,0.0147,0.0083,0,0,0,0,0,0,-0.0302,-0.0298,-0.0304,-0.0261,-0.0252,-0.0229,-0.0209,-0.02,-0.0183,-0.018,-0.0112,-0.01,-0.0059,-0.0004,0.0009,0.0014,0.0027,0.0146,0.0146,0.0147,0.0085,0.0082,0.0078,0,0,0,0,0,-0.0304,-0.0313,-0.0305,-0.03,-0.0261,-0.023,-0.0222,-0.0192,-0.0182,-0.0178,-0.0132,-0.0102,0.0008,0.0,0.0017,0.0023,0.0146,0.0146,0.0147,0.0087,0.0082,0.0078,0,0,0,0,0,0,-0.0337,-0.0308,-0.0299,-0.0298,-0.0271,-0.0223,-0.0218,-0.0196,-0.0156,-0.0154,-0.0095,-0.0079,-0.0037,0.0004,-0.0007,0.0062,0.0081,0.0085,0.003,0.0026,0.0023,0.0004,0.0031,0,0,0,0,0,-0.0348,-0.0348,-0.0311,-0.0312,-0.0301,-0.0261,-0.0245,-0.0224,-0.0183,-0.0167,-0.012,-0.0068,-0.002,0.0009,0.0056,0.0099,0.0136,0.0113,0.011,0.0106,0.0102,0.0156,0.0157,0.0149,0.0149,0.0149,0,0,-0.0362,-0.0346,-0.0346,-0.0319,-0.0296,-0.0283,-0.0251,-0.0232,-0.022,-0.0157,-0.0126,-0.0078,-0.0012,0.0029,0.0053,0.0064,0.0128,0.0107,0.0104,0.0101,0.0157,0.0158,0.0158,0.0149,0.0149,0.0149,0,0,-0.0384,-0.0375,-0.0379,-0.036,-0.033,-0.0303,-0.0301,-0.0256,-0.0236,-0.0199,-0.0153,-0.0106,-0.0033,0.0013,0.0047,0.0057,0.0105,0.0072,0.0045,0.0097,0.0098,0.01,0.0144,0.015,0.0073,0.0073,0.0073,0,-0.0403,-0.0405,-0.0375,-0.0371,-0.0363,-0.0317,-0.0318,-0.0286,-0.0232,-0.0215,-0.02,-0.0094,-0.0041,0.0017,0.0018,0.0049,0.0082,0.0052,0.0092,0.0094,0.0096,0.0141,0.0148,0.007,0.0071,0.0071,0.0071,0,-0.0421,-0.0426,-0.0427,-0.0411,-0.0396,-0.039,-0.0348,-0.0328,-0.03,-0.0264,-0.0209,-0.0135,-0.0075,-0.0047,-0.001,0.0035,0.0054,0.0076,0.0096,0.0093,0.0141,0.015,0.0066,0.0067,0.0068,0.0069,0,0,-0.0455,-0.0445,-0.0447,-0.0456,-0.042,-0.0413,-0.0393,-0.0361,-0.0353,-0.029,-0.0267,-0.0179,-0.0142,-0.0101,-0.0043,0.0008,0.0055,0.0043,0.0047,0.0077,0.0165,0.0142,0.015,0.0081,0.0083,0.0084,0.0191,0,-0.0481,-0.0499,-0.0479,-0.0497,-0.0504,-0.0466,-0.0454,-0.0418,-0.0379,-0.0343,-0.0258,-0.0211,-0.016,-0.0133,-0.0074,0.002,0.0075,0.0023,0.0174,0.0178,0.015,0.0158,0.0087,0.0197,0.0199,0.0201,0.0202,0,-0.0503,-0.0517,-0.0544,-0.0553,-0.0553,-0.0555,-0.054,-0.0522,-0.0454,-0.0421,-0.0356,-0.0288,-0.0201,-0.0159,-0.0004,-0.0041,0.0054,0.0131,0.0137,0.0142,0.0171,0.0206,0.0218,0.0217,0.0215,0.0214,0.0213,0,-0.0547,-0.0563,-0.0594,-0.0596,-0.0591,-0.0602,-0.0597,-0.055,-0.0541,-0.0471,-0.045,-0.0338,-0.0278,-0.0154,0.0001,-0.0001,0.0174,0.0193,0.0267,0.0267,0.0283,0.0281,0.0308,0.0308,0.0307,0.0307,0.0307,0,-0.0579,-0.0607,-0.0625,-0.0644,-0.0687,-0.066,-0.0686,-0.066,-0.0618,-0.0602,-0.0499,-0.0451,-0.0273,-0.015,-0.0014,0.0145,0.0164,0.0262,0.0293,0.0254,0.0248,0.0289,0.0286,0.0311,0.031,0.031,0.0309,0,-0.0615,-0.0624,-0.067,-0.0695,-0.071,-0.0741,-0.0758,-0.0767,-0.072,-0.0694,-0.0672,-0.053,-0.037,-0.019,0.0027,0.0119,0.0278,0.0337,0.0276,0.0302,0.034,0.0333,0.0418,0.0418,0.0418,0.0418,0.0418,0,-0.063,-0.0658,-0.0721,-0.0763,-0.0781,-0.0824,-0.0849,-0.0823,-0.0821,-0.0735,-0.0718,-0.0563,-0.045,-0.0162,0.0018,0.0267,0.0308,0.0377,0.0363,0.033,0.0352,0.0344,0.0336,0.0418,0.0418,0.0418,0.0418,0,-0.0664,-0.0693,-0.0733,-0.082,-0.0872,-0.0918,-0.0946,-0.0951,-0.0901,-0.0866,-0.0734,-0.0572,-0.0387,-0.0163,0.0033,0.0211,0.0316,0.0379,0.038,0.0367,0.0331,0.0352,0.0344,0.0418,0.0418,0.0418,0.0418,0,-0.069,-0.0733,-0.0794,-0.0865,-0.0938,-0.0981,-0.0995,-0.0966,-0.0946,-0.0837,-0.0794,-0.0579,-0.0446,-0.019,-0.0013,0.0155,0.0197,0.024,0.025,0.0251,0.0165,0.0093,0.0133,0,0,0,0,0,-0.0709,-0.0757,-0.0833,-0.0907,-0.0979,-0.1013,-0.104,-0.1034,-0.0989,-0.0901,-0.084,-0.0657,-0.0373,-0.0245,-0.0078,-0.0032,0.0204,0.0165,0.0252,0.042,0.0419,0.0344,0,0,0,0,0,0,-0.0723,-0.0795,-0.0831,-0.092,-0.0976,-0.1041,-0.1059,-0.1031,-0.0965,-0.0896,-0.0737,-0.0637,-0.0357,-0.0463,-0.0078,-0.0028,0.0044,0.0306,0.0309,0.042,0.0419,0.0419,0.0341,0,0,0,0,0]}]]